When you browse on this site, cookies collect data to enhance your experience and personalize the content and advertising you see.
Visit our Privacy Policy to learn more. By continuing to use the site, you agree to this use of cookies and data.
  • In Portugal
  • List of Countries
  • For 7 days
  • Water Temperature
  • Weather Map
  • Weather Widgets
  • user-avatar
    Login

    Hourly Weather Kazanovka

    Today, 30 May, Saturday

    Time Temperature Precipitation Wind Pressure Humidity
    00:00 +9°C° 0 mm 1 mps 716 mmHg 68%
    01:00 +8°C° 0 mm 1 mps 716 mmHg 69%
    02:00 +8°C° 0 mm 1 mps 715 mmHg 71%
    03:00 +8°C° 0 mm 1 mps 715 mmHg 72%
    04:00 +9°C° 0 mm 1 mps 714 mmHg 70%
    05:00 +9°C° 0 mm 1 mps 714 mmHg 68%
    06:00 +9°C° 0 mm 2 mps 714 mmHg 65%
    07:00 +10°C° 0.2 mm 2 mps 713 mmHg 68%
    08:00 +11°C° 0.2 mm 3 mps 713 mmHg 71%
    09:00 +11°C° 0.2 mm 4 mps 713 mmHg 74%
    10:00 +11°C° 0.4 mm 4 mps 713 mmHg 79%
    11:00 +11°C° 0.4 mm 4 mps 713 mmHg 83%
    12:00 +11°C° 0 mm 4 mps 712 mmHg 89%
    13:00 +13°C° 0.1 mm 4 mps 712 mmHg 82%
    14:00 +15°C° 0.1 mm 5 mps 712 mmHg 75%
    15:00 +16°C° 0.1 mm 5 mps 712 mmHg 68%
    16:00 +16°C° 0.1 mm 5 mps 711 mmHg 68%
    17:00 +17°C° 0.1 mm 4 mps 711 mmHg 69%
    18:00 +17°C° 0 mm 4 mps 711 mmHg 70%
    19:00 +14°C° 0.2 mm 3 mps 711 mmHg 76%
    20:00 +13°C° 0.2 mm 3 mps 711 mmHg 83%
    21:00 +12°C° 0.2 mm 2 mps 711 mmHg 89%
    22:00 +10°C° 0.2 mm 2 mps 711 mmHg 90%
    23:00 +10°C° 0.2 mm 2 mps 712 mmHg 91%

    Tomorrow, 31 May, Sunday

    Time Temperature Precipitation Wind Pressure Humidity
    00:00 +9°C° 0.2 mm 2 mps 712 mmHg 93%
    01:00 +9°C° 0.5 mm 3 mps 712 mmHg 93%
    02:00 +9°C° 0.5 mm 3 mps 713 mmHg 93%
    03:00 +8°C° 0.5 mm 4 mps 713 mmHg 93%
    04:00 +9°C° 0 mm 5 mps 713 mmHg 89%
    05:00 +9°C° 0 mm 5 mps 714 mmHg 86%
    06:00 +9°C° 0 mm 6 mps 714 mmHg 83%
    07:00 +9°C° 0 mm 6 mps 714 mmHg 81%
    08:00 +10°C° 0 mm 6 mps 715 mmHg 79%
    09:00 +10°C° 0 mm 6 mps 715 mmHg 77%
    10:00 +11°C° 0.1 mm 7 mps 715 mmHg 72%
    11:00 +14°C° 0.1 mm 7 mps 715 mmHg 67%
    12:00 +15°C° 0.1 mm 8 mps 714 mmHg 62%
    13:00 +13°C° 0.6 mm 8 mps 714 mmHg 68%
    14:00 +13°C° 0.6 mm 9 mps 714 mmHg 74%
    15:00 +12°C° 0.6 mm 9 mps 714 mmHg 80%
    16:00 +12°C° 1.6 mm 8 mps 714 mmHg 83%
    17:00 +11°C° 1.6 mm 7 mps 714 mmHg 87%
    18:00 +11°C° 1.6 mm 6 mps 714 mmHg 90%
    19:00 +11°C° 0.9 mm 6 mps 714 mmHg 90%
    20:00 +12°C° 0.9 mm 5 mps 714 mmHg 91%
    21:00 +12°C° 0.9 mm 5 mps 714 mmHg 92%
    22:00 +12°C° 0.6 mm 4 mps 714 mmHg 92%
    23:00 +12°C° 0.6 mm 4 mps 714 mmHg 92%

    Day after tomorrow, 1 June, Monday

    Time Temperature Precipitation Wind Pressure Humidity
    00:00 +12°C° 0.6 mm 4 mps 714 mmHg 92%
    01:00 +11°C° 0.7 mm 3 mps 714 mmHg 94%
    02:00 +12°C° 0.7 mm 2 mps 714 mmHg 95%
    03:00 +12°C° 0.7 mm 1 mps 714 mmHg 96%
    04:00 +11°C° 1.7 mm 1 mps 713 mmHg 96%
    05:00 +11°C° 1.7 mm 1 mps 713 mmHg 97%
    06:00 +10°C° 1.7 mm 2 mps 713 mmHg 98%
    07:00 +10°C° 2.1 mm 1 mps 713 mmHg 98%
    08:00 +10°C° 2.1 mm 1 mps 713 mmHg 98%
    09:00 +10°C° 2.1 mm 1 mps 713 mmHg 97%
    10:00 +10°C° 1.3 mm 1 mps 713 mmHg 97%
    11:00 +10°C° 1.3 mm 1 mps 713 mmHg 97%
    12:00 +10°C° 1.3 mm 1 mps 712 mmHg 97%
    13:00 +12°C° 0.2 mm 1 mps 712 mmHg 94%
    14:00 +13°C° 0.2 mm 1 mps 713 mmHg 92%
    15:00 +14°C° 0.2 mm 1 mps 713 mmHg 89%
    16:00 +14°C° 0 mm 1 mps 713 mmHg 88%
    17:00 +15°C° 0 mm 1 mps 713 mmHg 87%
    18:00 +15°C° 0 mm 1 mps 713 mmHg 86%
    19:00 +13°C° 0 mm 1 mps 713 mmHg 90%
    20:00 +12°C° 0 mm 1 mps 714 mmHg 93%
    21:00 +11°C° 0 mm 1 mps 714 mmHg 97%
    22:00 +10°C° 0 mm 1 mps 714 mmHg 96%
    23:00 +10°C° 0 mm 1 mps 714 mmHg 96%

    2 June, Tuesday

    Time Temperature Precipitation Wind Pressure Humidity
    00:00 +10°C° 0 mm 1 mps 714 mmHg 95%
    01:00 +10°C° 0 mm 1 mps 713 mmHg 94%
    02:00 +9°C° 0 mm 0 mps 713 mmHg 94%
    03:00 +9°C° 0 mm 0 mps 713 mmHg 93%
    04:00 +9°C° 0 mm 0 mps 712 mmHg 93%
    05:00 +10°C° 0 mm 0 mps 712 mmHg 92%
    06:00 +11°C° 0 mm 1 mps 712 mmHg 91%
    07:00 +11°C° 1.2 mm 1 mps 711 mmHg 93%
    08:00 +11°C° 1.2 mm 1 mps 711 mmHg 94%
    09:00 +11°C° 1.2 mm 1 mps 711 mmHg 96%
    10:00 +12°C° 0.5 mm 1 mps 711 mmHg 95%
    11:00 +13°C° 0.5 mm 1 mps 711 mmHg 95%
    12:00 +14°C° 0.5 mm 1 mps 711 mmHg 94%
    13:00 +16°C° 0.3 mm 2 mps 711 mmHg 87%
    14:00 +18°C° 0.3 mm 3 mps 711 mmHg 80%
    15:00 +20°C° 0.3 mm 5 mps 711 mmHg 74%
    16:00 +20°C° 0.1 mm 5 mps 712 mmHg 73%
    17:00 +20°C° 0.1 mm 5 mps 712 mmHg 72%
    18:00 +19°C° 0.1 mm 5 mps 712 mmHg 71%
    19:00 +17°C° 0 mm 5 mps 712 mmHg 77%
    20:00 +15°C° 0 mm 4 mps 712 mmHg 83%
    21:00 +13°C° 0 mm 3 mps 712 mmHg 90%
    22:00 +13°C° 0.1 mm 3 mps 713 mmHg 91%
    23:00 +12°C° 0.1 mm 3 mps 713 mmHg 92%

    3 June, Wednesday

    Time Temperature Precipitation Wind Pressure Humidity
    00:00 +13°C° 0.1 mm 2 mps 714 mmHg 94%
    01:00 +12°C° 0 mm 2 mps 714 mmHg 93%
    02:00 +12°C° 0 mm 2 mps 714 mmHg 93%
    03:00 +12°C° 0 mm 2 mps 714 mmHg 93%
    04:00 +11°C° 0 mm 3 mps 715 mmHg 91%
    05:00 +12°C° 0 mm 3 mps 715 mmHg 88%
    06:00 +12°C° 0 mm 4 mps 715 mmHg 85%
    07:00 +13°C° 0 mm 4 mps 715 mmHg 79%
    08:00 +14°C° 0 mm 4 mps 715 mmHg 73%
    09:00 +15°C° 0 mm 4 mps 716 mmHg 67%
    10:00 +17°C° 0 mm 4 mps 716 mmHg 62%
    11:00 +17°C° 0 mm 5 mps 716 mmHg 58%
    12:00 +19°C° 0 mm 5 mps 716 mmHg 53%
    13:00 +19°C° 0 mm 5 mps 716 mmHg 53%
    14:00 +20°C° 0 mm 4 mps 716 mmHg 52%
    15:00 +20°C° 0 mm 4 mps 716 mmHg 51%
    16:00 +20°C° 0.1 mm 4 mps 716 mmHg 55%
    17:00 +19°C° 0.1 mm 3 mps 715 mmHg 59%
    18:00 +18°C° 0.1 mm 3 mps 715 mmHg 63%
    19:00 +17°C° 0 mm 2 mps 715 mmHg 70%
    20:00 +15°C° 0 mm 1 mps 715 mmHg 76%
    21:00 +13°C° 0 mm 1 mps 714 mmHg 82%
    22:00 +12°C° 0 mm 0 mps 714 mmHg 84%
    23:00 +11°C° 0 mm 0 mps 713 mmHg 87%

    4 June, Thursday

    Time Temperature Precipitation Wind Pressure Humidity
    00:00 +11°C° 0 mm 0 mps 713 mmHg 89%
    01:00 +11°C° 0 mm 0 mps 712 mmHg 89%
    02:00 +12°C° 0 mm 1 mps 711 mmHg 90%
    03:00 +12°C° 0 mm 1 mps 711 mmHg 90%
    04:00 +12°C° 0.5 mm 1 mps 711 mmHg 91%
    05:00 +12°C° 0.5 mm 1 mps 710 mmHg 92%
    06:00 +13°C° 0.5 mm 2 mps 710 mmHg 92%
    07:00 +13°C° 1.9 mm 2 mps 709 mmHg 93%
    08:00 +13°C° 1.9 mm 2 mps 709 mmHg 94%
    09:00 +14°C° 1.9 mm 2 mps 709 mmHg 95%
    10:00 +13°C° 2 mm 3 mps 709 mmHg 94%
    11:00 +13°C° 2 mm 3 mps 709 mmHg 93%
    12:00 +14°C° 2 mm 3 mps 709 mmHg 91%
    13:00 +14°C° 0.6 mm 4 mps 709 mmHg 90%
    14:00 +15°C° 0.6 mm 4 mps 709 mmHg 89%
    15:00 +15°C° 0.6 mm 5 mps 709 mmHg 87%
    16:00 +15°C° 0.2 mm 5 mps 709 mmHg 85%
    17:00 +17°C° 0.2 mm 4 mps 710 mmHg 82%
    18:00 +17°C° 0.2 mm 4 mps 710 mmHg 79%
    19:00 +14°C° 0.1 mm 4 mps 710 mmHg 83%
    20:00 +13°C° 0.1 mm 3 mps 711 mmHg 87%
    21:00 +12°C° 0.1 mm 2 mps 711 mmHg 91%
    22:00 +10°C° 0 mm 2 mps 711 mmHg 91%
    23:00 +9°C° 0 mm 2 mps 711 mmHg 92%
    Show more